Regional Weather Roundup
Issued by NWS

Home | Current Version | Previous Version | Text Only | Print | Product List | Glossary Off
Versions: 1 2 3 4 5 6 7 8 9 10 11 12 13 14 15 16 17 18 19 20 21 22 23 24 25 26 27 28 29 30 31 32 33 34 35 36 37 38 39 40 41 42 43 44 45 46 47 48

000
ASUS45 KBOU 212007
RWRCO

WEATHER ROUNDUP FOR COLORADO
NATIONAL WEATHER SERVICE DENVER/BOULDER CO
200 PM MDT SUN SEP 21 2014

NOTE: "FAIR" INDICATES FEW OR NO CLOUDS BELOW 12000 FEET WITH NO
SIGNIFICANT WEATHER AND/OR OBSTRUCTIONS TO VISIBILITY.

COZ001>005-013-030-031-212100-
...NORTHWEST COLORADO...

CITY           SKY/WX    TMP DP  RH WIND       PRES   REMARKS
CRAIG          LGT RAIN  61  55  81 W7        30.37F
HAYDEN         CLOUDY    64  46  52 W14       30.38R
MEEKER         NOT AVBL
MOUNT WERNER   NOT AVBL
STEAMBOAT SPGS CLOUDY    65  47  53 N9        30.39S
WALDEN         PTSUNNY   66  39  37 SW13      30.41F
$$

COZ006>008-011-212100-
...WEST CENTRAL VALLEYS...

CITY           SKY/WX    TMP DP  RH WIND       PRES   REMARKS
GRAND JUNCTION SUNNY     77  55  46 E10       30.18F
MONTROSE       PTSUNNY   77  52  41 SE7       30.25F
EAGLE          PTSUNNY   64  50  59 CALM      30.39F
RIFLE          PTSUNNY   69  52  54 N5        30.28F
DELTA          RAIN      79  51  37 E5        30.22F
NUCLA          CLOUDY    82  39  21 S20G26    30.25F
$$

COZ017>023-064>068-212100-
...SOUTHWEST COLORADO...

CITY           SKY/WX    TMP DP  RH WIND       PRES   REMARKS
DURANGO        MOSUNNY   73  51  46 NW6       30.31F
CORTEZ         MOSUNNY   80  50  34 SE15G23   30.25F
PAGOSA SPRINGS MOSUNNY   74  39  28 W7        30.38F
TELLURIDE      NOT AVBL
WOLF CREEK PAS LGT RAIN  48  41  76 SW13G21   30.67F
$$

COZ009-010-012-014-032>034-037-058>063-212100-
...CENTRAL COLORADO...

CITY           SKY/WX    TMP DP  RH WIND       PRES   REMARKS
ASPEN          CLOUDY    63  44  50 VRB6      30.42F
BUENA VISTA    PTSUNNY   62  49  61 CALM      30.45F
COPPER MTN     CLOUDY    50  37  62 S16G23    30.70S
BERTHOUD PASS  TSTM      36  34  93 N6        30.74S VSB 1/4
COTTONWOOD PAS PTSUNNY   61  50  67 SE5       30.56F
GUNNISON       MOSUNNY   63  46  55 N10       30.44F
KREMMLING      CLOUDY    64  43  45 W9G25     30.41F
LEADVILLE      LGT RAIN  50  44  80 CALM      30.55F
MONARCH PASS   CLOUDY    46  43  87 S10       30.79F
SALIDA         NOT AVBL
SUNLIGHT       CLOUDY    48  46  93 E3        30.61F
WILKERSON PASS NOT AVBL
$$

COZ069>075-212100-
...SAN LUIS VALLEY/SANGRE DE CRISTO MOUNTAINS...

CITY           SKY/WX    TMP DP  RH WIND       PRES   REMARKS
ALAMOSA        SUNNY     76  39  26 S10G17    30.36F
LA VETA PASS   TSTM      50  46  87 NE12      30.59F VSB<1/4
SAGUACHE       NOT AVBL
$$

COZ035-036-038>040-212100-
...NORTHERN COLORADO FRONT RANGE...

CITY           SKY/WX    TMP DP  RH WIND       PRES   REMARKS
DENVER INTL AP CLOUDY    74  51  44 S10       30.29F
DMNS CITY PARK   N/A     72  49  44 NW9       30.28F
AURORA         PTSUNNY   73  52  46 S16       30.30F
FRONT RANGE AP NOT AVBL
ERIE MUNI ARPT NOT AVBL
BOULDER MUN AP PTSUNNY   68  46  45 W3        30.30F
CENTENNIAL     PTSUNNY   74  52  46 S18       30.30F
BROOMFIELD     PTSUNNY   68  46  45 N3        30.33F
FORT COLLINS   PTSUNNY   72  46  40 E6        30.30F
LONGMONT       PTSUNNY   74  48  39 E3        30.31F
$$

COZ041-046-047-076>085-087-088-212100-
...PIKES PEAK/PALMER DIVIDE AND SOUTHERN FOOTHILLS...

CITY           SKY/WX    TMP DP  RH WIND       PRES   REMARKS
COLO. SPRINGS  PTSUNNY   69  46  43 S16       30.40F
A. F. ACADEMY  PTSUNNY   67  48  50 S21G26    30.39F
ELLICOTT       NOT AVBL
FALCON         PTSUNNY   65  46  49 S16G25    30.43F
FORT CARSON    PTSUNNY   68  47  47 S15       30.37F
LIMON          SUNNY     72  42  34 S16G28    30.35F
MONUMENT HILL  CLOUDY    64  46  52 S23       30.39F
TRINIDAD       SUNNY     75  50  41 E13       30.34F
$$

COZ042>045-048>051-090-091-212100-
...NORTHEAST COLORADO...

CITY           SKY/WX    TMP DP  RH WIND       PRES   REMARKS
GREELEY ARPT   MOSUNNY   73  48  40 SE12G17   30.29F
AKRON          PTSUNNY   69  41  36 SE16G23   30.33F
BURLINGTON     MOSUNNY   74  37  26 E13       30.34F
WRAY           MOSUNNY   75  36  23 E7        30.33F
STERLING       PTSUNNY   75  45  33 SE10G17   30.30F
HOLYOKE        SUNNY     79  41  25 SE8       30.32F
FORT MORGAN    PTSUNNY   73  40  30 SE12G18   30.31F
$$

COZ086-089-092>099-212100-
...SOUTHEAST COLORADO...

CITY           SKY/WX    TMP DP  RH WIND       PRES   REMARKS
PUEBLO         MOSUNNY   72  50  45 E9        30.32F
LA JUNTA       MOSUNNY   76  43  30 E9G20     30.31F
LAMAR          PTSUNNY   77  41  27 E12       30.28F
SPRINGFIELD      N/A     77  45  32 E12G20    30.30F
$$



USA.gov is the U.S. government's official web portal to all federal, state and local government web resources and services.